Time,TemperatureF,DewpointF,PressureIn,WindDirection,WindDirectionDegrees,WindSpeedMPH,WindSpeedGustMPH,Humidity,HourlyPrecipIn,Conditions,Clouds,dailyrainin,SoftwareType,DateUTC
2013-03-15 00:10:00,26.6,23.0,30.06,North,-999,1.0,2.0,86,0.00,,,0.00,weatherlink.com 1.10,2013-03-15 05:10:00,
2013-03-15 00:25:00,26.5,23.0,30.06,North,-999,3.0,5.0,87,0.00,,,0.00,weatherlink.com 1.10,2013-03-15 05:25:00,
2013-03-15 00:40:00,26.4,23.0,30.06,North,-999,2.0,5.0,88,0.00,,,0.00,weatherlink.com 1.10,2013-03-15 05:40:00,
2013-03-15 00:55:00,26.6,24.0,30.06,North,-999,0.0,2.0,88,0.00,,,0.00,weatherlink.com 1.10,2013-03-15 05:55:00,
2013-03-15 01:10:00,27.0,24.0,30.04,North,-999,0.0,1.0,88,0.00,,,0.00,weatherlink.com 1.10,2013-03-15 06:10:00,
2013-03-15 01:25:00,27.0,24.0,30.04,North,-999,0.0,0.0,87,0.00,,,0.00,weatherlink.com 1.10,2013-03-15 06:25:00,
2013-03-15 01:40:00,26.9,24.0,30.03,North,-999,0.0,0.0,87,0.00,,,0.00,weatherlink.com 1.10,2013-03-15 06:40:00,
2013-03-15 01:55:00,26.8,24.0,30.02,North,-999,0.0,0.0,88,0.00,,,0.00,weatherlink.com 1.10,2013-03-15 06:55:00,
2013-03-15 02:10:00,26.5,23.0,30.05,North,-999,5.0,5.0,88,0.00,,,0.00,weatherlink.com 1.10,2013-03-15 07:10:00,
2013-03-15 02:25:00,26.4,24.0,30.05,North,-999,4.0,7.0,90,0.00,,,0.00,weatherlink.com 1.10,2013-03-15 07:25:00,
2013-03-15 02:40:00,26.9,24.0,30.05,North,-999,5.0,6.0,89,0.00,,,0.00,weatherlink.com 1.10,2013-03-15 07:40:00,
2013-03-15 02:55:00,27.3,25.0,30.04,North,-999,4.0,7.0,89,0.00,,,0.00,weatherlink.com 1.10,2013-03-15 07:55:00,
2013-03-15 03:10:00,27.5,24.0,30.04,North,-999,1.0,4.0,88,0.00,,,0.00,weatherlink.com 1.10,2013-03-15 08:10:00,
2013-03-15 03:25:00,27.7,25.0,30.03,North,-999,2.0,6.0,88,0.00,,,0.00,weatherlink.com 1.10,2013-03-15 08:25:00,
2013-03-15 03:40:00,28.0,25.0,30.04,North,-999,1.0,8.0,88,0.00,,,0.00,weatherlink.com 1.10,2013-03-15 08:40:00,
2013-03-15 04:10:00,28.5,25.0,30.03,North,-999,1.0,3.0,88,0.00,,,0.00,weatherlink.com 1.10,2013-03-15 09:10:00,
2013-03-15 04:25:00,29.0,26.0,30.03,North,-999,1.0,5.0,88,0.00,,,0.00,weatherlink.com 1.10,2013-03-15 09:25:00,
2013-03-15 04:40:00,29.2,26.0,30.03,North,-999,5.0,6.0,88,0.00,,,0.00,weatherlink.com 1.10,2013-03-15 09:40:00,
2013-03-15 04:55:00,29.4,27.0,30.01,North,-999,6.0,9.0,89,0.00,,,0.00,weatherlink.com 1.10,2013-03-15 09:55:00,
2013-03-15 05:10:00,29.6,27.0,30.00,North,-999,6.0,8.0,90,0.00,,,0.00,weatherlink.com 1.10,2013-03-15 10:10:00,
2013-03-15 05:25:00,29.8,27.0,30.00,North,-999,6.0,11.0,90,0.00,,,0.00,weatherlink.com 1.10,2013-03-15 10:25:00,
2013-03-15 05:40:00,29.8,28.0,29.99,North,-999,8.0,11.0,91,0.00,,,0.00,weatherlink.com 1.10,2013-03-15 10:40:00,
2013-03-15 05:55:00,29.7,28.0,29.99,North,-999,7.0,11.0,92,0.00,,,0.00,weatherlink.com 1.10,2013-03-15 10:55:00,
2013-03-15 06:10:00,29.8,28.0,29.99,North,-999,6.0,10.0,92,0.00,,,0.00,weatherlink.com 1.10,2013-03-15 11:10:00,
2013-03-15 06:25:00,29.8,28.0,30.01,North,-999,1.0,4.0,93,0.00,,,0.00,weatherlink.com 1.10,2013-03-15 11:25:00,
2013-03-15 06:55:00,29.9,28.0,30.00,North,-999,5.0,7.0,94,0.00,,,0.00,weatherlink.com 1.10,2013-03-15 11:55:00,
2013-03-15 07:25:00,29.8,28.0,30.00,North,-999,9.0,10.0,94,0.00,,,0.00,weatherlink.com 1.10,2013-03-15 12:25:00,
2013-03-15 07:40:00,29.9,28.0,29.99,North,-999,5.0,9.0,94,0.00,,,0.00,weatherlink.com 1.10,2013-03-15 12:40:00,
2013-03-15 07:55:00,29.8,28.0,29.99,North,-999,10.0,12.0,94,0.00,,,0.00,weatherlink.com 1.10,2013-03-15 12:55:00,
2013-03-15 08:10:00,29.8,28.0,29.98,North,-999,7.0,11.0,94,0.00,,,0.00,weatherlink.com 1.10,2013-03-15 13:10:00,
2013-03-15 08:25:00,29.8,28.0,29.98,North,-999,9.0,10.0,94,0.00,,,0.00,weatherlink.com 1.10,2013-03-15 13:25:00,
2013-03-15 08:40:00,29.8,28.0,29.98,North,-999,8.0,12.0,94,0.00,,,0.00,weatherlink.com 1.10,2013-03-15 13:40:00,
2013-03-15 08:56:00,29.8,28.0,29.98,North,-999,8.0,10.0,94,0.00,,,0.00,weatherlink.com 1.10,2013-03-15 13:56:00,
2013-03-15 09:10:00,29.9,28.0,29.98,North,-999,7.0,11.0,94,0.00,,,0.00,weatherlink.com 1.10,2013-03-15 14:10:00,
2013-03-15 09:25:00,29.9,28.0,29.98,North,-999,7.0,11.0,94,0.00,,,0.00,weatherlink.com 1.10,2013-03-15 14:25:00,
2013-03-15 09:40:00,30.0,29.0,29.99,North,-999,9.0,11.0,94,0.00,,,0.00,weatherlink.com 1.10,2013-03-15 14:40:00,
2013-03-15 09:55:00,30.1,29.0,29.98,North,-999,7.0,10.0,94,0.00,,,0.00,weatherlink.com 1.10,2013-03-15 14:55:00,
2013-03-15 10:11:00,30.2,29.0,29.98,North,-999,7.0,12.0,94,0.00,,,0.00,weatherlink.com 1.10,2013-03-15 15:11:00,
2013-03-15 10:26:00,30.2,29.0,29.97,North,-999,9.0,12.0,94,0.00,,,0.00,weatherlink.com 1.10,2013-03-15 15:26:00,
2013-03-15 10:41:00,30.3,29.0,29.96,North,-999,11.0,12.0,94,0.00,,,0.00,weatherlink.com 1.10,2013-03-15 15:41:00,
2013-03-15 10:56:00,30.4,29.0,29.96,North,-999,11.0,13.0,93,0.00,,,0.00,weatherlink.com 1.10,2013-03-15 15:56:00,
2013-03-15 11:11:00,30.5,29.0,29.97,North,-999,6.0,14.0,93,0.00,,,0.00,weatherlink.com 1.10,2013-03-15 16:11:00,
2013-03-15 11:26:00,30.6,29.0,29.97,North,-999,7.0,11.0,92,0.00,,,0.00,weatherlink.com 1.10,2013-03-15 16:26:00,
2013-03-15 11:41:00,30.7,29.0,29.97,North,-999,8.0,10.0,92,0.00,,,0.00,weatherlink.com 1.10,2013-03-15 16:41:00,
2013-03-15 11:56:00,31.0,29.0,29.96,North,-999,8.0,10.0,92,0.00,,,0.00,weatherlink.com 1.10,2013-03-15 16:56:00,
2013-03-15 12:11:00,31.0,29.0,29.97,North,-999,6.0,13.0,91,0.00,,,0.00,weatherlink.com 1.10,2013-03-15 17:11:00,
2013-03-15 13:26:00,31.3,29.0,29.97,North,-999,5.0,9.0,90,0.00,,,0.00,weatherlink.com 1.10,2013-03-15 18:26:00,
2013-03-15 14:11:00,30.9,28.0,29.96,North,-999,10.0,15.0,88,0.00,,,0.00,weatherlink.com 1.10,2013-03-15 19:11:00,
2013-03-15 14:26:00,30.9,28.0,29.94,North,-999,12.0,13.0,87,0.00,,,0.00,weatherlink.com 1.10,2013-03-15 19:26:00,
2013-03-15 14:41:00,30.9,28.0,29.94,North,-999,9.0,12.0,87,0.00,,,0.00,weatherlink.com 1.10,2013-03-15 19:41:00,
2013-03-15 14:56:00,31.0,27.0,29.93,North,-999,9.0,14.0,86,0.00,,,0.00,weatherlink.com 1.10,2013-03-15 19:56:00,
2013-03-15 15:26:00,30.7,27.0,29.92,North,-999,10.0,13.0,86,0.00,,,0.00,weatherlink.com 1.10,2013-03-15 20:26:00,
2013-03-15 15:41:00,30.6,27.0,29.90,North,-999,9.0,15.0,85,0.00,,,0.00,weatherlink.com 1.10,2013-03-15 20:41:00,
2013-03-15 15:56:00,30.6,27.0,29.91,North,-999,10.0,14.0,85,0.00,,,0.00,weatherlink.com 1.10,2013-03-15 20:56:00,
2013-03-15 16:11:00,30.4,26.0,29.91,North,-999,10.0,14.0,85,0.00,,,0.00,weatherlink.com 1.10,2013-03-15 21:11:00,
2013-03-15 16:56:00,29.4,26.0,29.91,North,-999,9.0,13.0,88,0.00,,,0.00,weatherlink.com 1.10,2013-03-15 21:56:00,
2013-03-15 17:11:00,29.1,26.0,29.90,North,-999,9.0,13.0,88,0.00,,,0.00,weatherlink.com 1.10,2013-03-15 22:11:00,
2013-03-15 17:26:00,28.6,26.0,29.90,North,-999,11.0,15.0,89,0.00,,,0.00,weatherlink.com 1.10,2013-03-15 22:26:00,
2013-03-15 17:56:00,27.8,26.0,29.89,North,-999,6.0,14.0,93,0.00,,,0.00,weatherlink.com 1.10,2013-03-15 22:56:00,
2013-03-15 18:26:00,27.5,26.0,29.89,North,-999,12.0,16.0,93,0.00,,,0.00,weatherlink.com 1.10,2013-03-15 23:26:00,
2013-03-15 18:41:00,27.4,26.0,29.89,North,-999,10.0,15.0,93,0.00,,,0.00,weatherlink.com 1.10,2013-03-15 23:41:00,
2013-03-15 18:56:00,27.0,25.0,29.91,North,-999,10.0,15.0,93,0.00,,,0.00,weatherlink.com 1.10,2013-03-15 23:56:00,
2013-03-15 19:11:00,26.8,25.0,29.91,North,-999,11.0,17.0,93,0.00,,,0.00,weatherlink.com 1.10,2013-03-16 00:11:00,
2013-03-15 19:26:00,26.4,25.0,29.91,North,-999,10.0,15.0,93,0.00,,,0.00,weatherlink.com 1.10,2013-03-16 00:26:00,
2013-03-15 19:41:00,26.1,25.0,29.92,North,-999,13.0,13.0,94,0.00,,,0.00,weatherlink.com 1.10,2013-03-16 00:41:00,
2013-03-15 19:56:00,25.4,24.0,29.91,North,-999,13.0,19.0,93,0.00,,,0.00,weatherlink.com 1.10,2013-03-16 00:56:00,
2013-03-15 20:27:00,23.8,22.0,29.94,North,-999,14.0,21.0,92,0.00,,,0.00,weatherlink.com 1.10,2013-03-16 01:27:00,
2013-03-15 20:57:00,22.9,21.0,29.94,North,-999,12.0,17.0,92,0.00,,,0.00,weatherlink.com 1.10,2013-03-16 01:57:00,
2013-03-15 21:12:00,22.7,21.0,29.95,North,-999,12.0,15.0,92,0.00,,,0.00,weatherlink.com 1.10,2013-03-16 02:12:00,
2013-03-15 21:27:00,22.7,21.0,29.95,North,-999,11.0,16.0,92,0.00,,,0.00,weatherlink.com 1.10,2013-03-16 02:27:00,
2013-03-15 21:42:00,22.7,21.0,29.96,North,-999,9.0,16.0,92,0.00,,,0.00,weatherlink.com 1.10,2013-03-16 02:42:00,
2013-03-15 21:57:00,22.7,21.0,29.96,North,-999,13.0,13.0,93,0.00,,,0.00,weatherlink.com 1.10,2013-03-16 02:57:00,
2013-03-15 22:12:00,22.7,21.0,29.96,North,-999,7.0,13.0,94,0.00,,,0.00,weatherlink.com 1.10,2013-03-16 03:12:00,
2013-03-15 22:27:00,22.6,21.0,29.97,North,-999,9.0,14.0,93,0.00,,,0.00,weatherlink.com 1.10,2013-03-16 03:27:00,
2013-03-15 22:42:00,22.6,21.0,29.98,North,-999,7.0,13.0,93,0.00,,,0.00,weatherlink.com 1.10,2013-03-16 03:42:00,
2013-03-15 22:57:00,22.3,21.0,29.98,North,-999,9.0,12.0,93,0.00,,,0.00,weatherlink.com 1.10,2013-03-16 03:57:00,
2013-03-15 23:12:00,22.0,20.0,29.97,North,-999,9.0,12.0,93,0.00,,,0.00,weatherlink.com 1.10,2013-03-16 04:12:00,
2013-03-15 23:27:00,21.5,20.0,29.98,North,-999,10.0,15.0,92,0.00,,,0.00,weatherlink.com 1.10,2013-03-16 04:27:00,
2013-03-15 23:42:00,21.2,19.0,29.97,North,-999,11.0,12.0,92,0.00,,,0.00,weatherlink.com 1.10,2013-03-16 04:42:00,
2013-03-15 23:57:00,21.2,19.0,29.98,North,-999,13.0,13.0,92,0.00,,,0.00,weatherlink.com 1.10,2013-03-16 04:57:00,